Simultaneous Nadir Overpasses (SNOs) Predictions

Prediction of SNOs between GOES-15 and NOAA-20 Satellite Orbit:

Table of predicted SNOs for the next 14.0 days since TLE Epoch: 3/30/2024
Index Date Time (GOES-15) GOES-15 Lat,Lon NOAA-20 Lat,Lon Distance(km) Time Diff (sec)
1 03/31/2024 09:21:53 -0.09, 61.23 -0.22, 60.60 70.86 80
2 04/01/2024 09:04:08 -0.09, 61.23 0.88, 65.54 491.13 80
3 04/02/2024 21:20:43 0.10, 61.19 0.16, 60.88 34.93 80
4 04/05/2024 09:22:17 -0.10, 61.27 -0.11, 61.15 13.45 80
5 04/07/2024 21:21:07 0.10, 61.25 0.05, 61.44 21.73 80
6 04/10/2024 09:20:00 -0.10, 61.33 0.00, 61.71 43.04 80
7 04/11/2024 21:36:35 0.10, 61.31 1.05, 57.05 484.88 80
8 04/12/2024 21:18:49 0.10, 61.32 -0.06, 61.99 76.23 80
